Regional Weather Roundup
Issued by NWS

Home | Current Version | Previous Version | Text Only | Print | Product List | Glossary On
Versions: 1 2 3 4 5 6 7 8 9 10 11 12 13 14 15 16 17 18 19 20 21 22 23 24 25 26 27 28 29 30 31 32 33 34 35 36 37 38 39 40 41 42 43 44 45 46 47 48 49 50
000
ASUS43 KBIS 011902
RWRND

NORTH DAKOTA REGIONAL WEATHER ROUNDUP
NATIONAL WEATHER SERVICE BISMARCK ND
200 PM CDT SAT OCT 01 2016

NOTE: "FAIR" INDICATES FEW OR NO CLOUDS BELOW 12,000 FEET WITH NO
SIGNIFICANT WEATHER AND/OR OBSTRUCTIONS TO VISIBILITY.


NDZ001>003-009>011-017-012000-
NORTHWEST NORTH DAKOTA

CITY           SKY/WX    TMP DP  RH WIND       PRES   REMARKS
WILLISTON      SUNNY     72  51  47 S6        29.93F
MINOT          SUNNY     72  51  47 E13       29.96F
MINOT AFB      SUNNY     71  51  50 SE15      29.95F
$$

NDZ018>021-031>035-040>046-012000-
SOUTHWEST NORTH DAKOTA

CITY           SKY/WX    TMP DP  RH WIND       PRES   REMARKS
BISMARCK       SUNNY     73  50  44 SE16      29.98F
DICKINSON      SUNNY     73  50  44 SE8       29.94F
GARRISON         N/A     72  51  47 SE12G17   29.97F
HETTINGER ARPT SUNNY     76  52  43 SE8       29.96F
$$

NDZ004>008-012>016-024-026-027-054-012000-
NORTHEAST NORTH DAKOTA

CITY           SKY/WX    TMP DP  RH WIND       PRES   REMARKS
GRAND FORKS    PTSUNNY   68  54  60 S8        30.09F
GRND FRKS AFB  MOSUNNY   66  54  64 SE8       30.09F
DEVILS LAKE    MOSUNNY   69  49  48 SE17      30.06F
$$

NDZ022-023-025-028>030-036>039-047>053-012000-
SOUTHEAST NORTH DAKOTA

CITY           SKY/WX    TMP DP  RH WIND       PRES   REMARKS
FARGO          SUNNY     73  53  49 SE10G21   30.09F
JAMESTOWN      SUNNY     72  49  44 S16G25    30.04F
$$





USA.gov is the U.S. government's official web portal to all federal, state and local government web resources and services.